Home   Weather   40°42'N, 74°04'W   Past weeks
Flag for USA

Past Weather in 40°42'N, 74°04'W, USA — Yesterday and Last 2 Weeks

Now
60 °F

Fog.


Feels Like: 60 °F
Forecast: 62 / 54 °F
Wind: 3 mph from North

Location: New York City - Central Park

Current Time: Oct 22, 2019 at 5:53:32 pm

Latest Report: Oct 22, 2019 at 4:51 pm


Visibility: 5 mi

Pressure: 29.90 "Hg

Humidity: 93%

Dew Point: 58 °F

Location of 40°42'N, 74°04'WLocation

Past Weather in 40°42'N, 74°04'W — Graph

°F

40°42'N, 74°04'W Temperature Yesterday

Maximum temperature yesterday: 66 °F (at 1:51 pm)
Minimum temperature yesterday: 52 °F (at 12:51 am)
Average temperature yesterday: 57 °F

High & Low Weather Summary for the Past Weeks

 TemperatureHumidityPressure
High77 °F (Oct 7, 3:51 pm)97% (Oct 16, 6:51 pm)30.33 "Hg (Oct 16, 6:51 pm)
Low44 °F (Oct 19, 5:51 am)26% (Oct 10, 7:51 pm)29.13 "Hg (Oct 16, 9:51 pm)
Average58 °F67%30.02 "Hg
* Reported Oct 7 3:51 pm — Oct 22 3:51 pm, 40°42'N, 74°04'W. Weather by CustomWeather, © 2019

Note: Actual official high and low records may vary slightly from our data, if they occured in-between our weather recording intervals... More about our weather records

Advertising

40°42'N, 74°04'W Weather History for the Previous 24 Hours

Scroll right to see more
 ConditionsComfort  
Time TempWeatherWind HumidityBarometerVisibility
3:51 pm
Tue, Oct 22
60 °FLow clouds.8 mph90%29.90 "Hg10 mi
2:51 pm60 °FLow clouds.3 mph90%29.92 "Hg10 mi
1:51 pm59 °FLow clouds.6 mph90%29.96 "Hg9 mi
12:51 pm58 °FFog.3 mph93%30.01 "Hg6 mi
12:02 pm57 °FFog.5 mph93%30.07 "Hg4 mi
11:31 am57 °FFog.3 mph96%30.08 "Hg2 mi
11:16 am57 °FFog.6 mph93%30.09 "Hg1 mi
10:51 am57 °FLight rain. Fog.5 mph93%30.06 "Hg1 mi
10:37 am57 °FLight rain. Fog.5 mph93%30.09 "Hg2 mi
9:51 am58 °FOvercast.3 mph84%30.07 "Hg10 mi
9:38 am58 °FMostly cloudy.7 mph81%30.10 "Hg10 mi
9:01 am58 °FMostly cloudy.3 mph81%30.10 "Hg10 mi
8:19 am57 °FMore clouds than sun.6 mph81%30.09 "Hg10 mi
7:51 am57 °FOvercast.5 mph81%30.07 "Hg10 mi
6:51 am56 °FOvercast.3 mph75%30.07 "Hg10 mi
6:09 am56 °FMostly cloudy.No wind70%30.09 "Hg10 mi
5:51 am56 °FOvercast.3 mph72%30.07 "Hg10 mi
4:51 am57 °FOvercast.No wind62%30.09 "Hg10 mi
3:51 am57 °FOvercast.3 mph55%30.07 "Hg10 mi
2:51 am57 °FOvercast.5 mph49%30.09 "Hg10 mi
1:51 am56 °FPassing clouds.3 mph67%30.11 "Hg10 mi
12:51 am57 °FClear.3 mph69%30.11 "Hg10 mi
11:51 pm
Mon, Oct 21
55 °FClear.No wind80%30.12 "Hg10 mi
10:51 pm55 °FClear.3 mph87%30.12 "Hg10 mi
9:51 pm57 °FClear.3 mph81%30.11 "Hg10 mi
8:51 pm58 °FClear.3 mph75%30.11 "Hg10 mi
7:51 pm59 °FClear.No wind72%30.09 "Hg10 mi
6:51 pm60 °FClear.No wind67%30.09 "Hg10 mi
5:51 pm62 °FSunny.6 mph52%30.08 "Hg10 mi
Weather by CustomWeather, © 2019

See weather overview